Time,TemperatureF,DewpointF,PressureIn,WindDirection,WindDirectionDegrees,WindSpeedMPH,WindSpeedGustMPH,Humidity,HourlyPrecipIn,Conditions,Clouds,dailyrainin,SolarRadiationWatts/m^2,SoftwareType,DateUTC
2013-02-16 00:02:00,29.0,26.0,-100.00,ESE,103,1.0,5.0,87,0.00,,,0.07,0.000000,,2013-02-16 05:02:00,
2013-02-16 00:11:00,29.0,26.0,-100.00,ESE,110,1.0,5.0,87,0.00,,,0.07,0.000000,,2013-02-16 05:11:00,
2013-02-16 00:32:00,29.0,26.0,-100.00,ESE,110,1.0,5.0,87,0.00,,,0.07,0.000000,,2013-02-16 05:32:00,
2013-02-16 00:42:00,29.0,26.0,-100.00,ESE,110,1.0,5.0,87,0.00,,,0.07,0.000000,,2013-02-16 05:42:00,
2013-02-16 00:52:00,29.0,26.0,-100.00,ESE,110,1.0,5.0,87,0.00,,,0.07,0.000000,,2013-02-16 05:52:00,
2013-02-16 01:02:00,29.0,26.0,-100.00,ESE,110,1.0,5.0,87,0.00,,,0.07,0.000000,,2013-02-16 06:02:00,
2013-02-16 01:11:00,29.0,26.0,-100.00,SE,125,2.0,5.0,88,0.00,,,0.07,0.000000,,2013-02-16 06:11:00,
2013-02-16 01:42:00,29.0,26.0,-100.00,SE,125,2.0,5.0,88,0.00,,,0.07,0.000000,,2013-02-16 06:42:00,
2013-02-16 01:52:00,29.0,26.0,-100.00,SE,125,2.0,5.0,88,0.00,,,0.07,0.000000,,2013-02-16 06:52:00,
2013-02-16 02:02:00,29.0,26.0,-100.00,SE,125,2.0,5.0,88,0.00,,,0.07,0.000000,,2013-02-16 07:02:00,
2013-02-16 02:11:00,29.0,26.0,-100.00,ESE,114,2.0,5.0,87,0.00,,,0.07,0.000000,,2013-02-16 07:11:00,
2013-02-16 02:32:00,29.0,26.0,-100.00,ESE,114,2.0,5.0,87,0.00,,,0.07,0.000000,,2013-02-16 07:32:00,
2013-02-16 02:42:00,29.0,26.0,-100.00,ESE,114,2.0,5.0,87,0.00,,,0.07,0.000000,,2013-02-16 07:42:00,
2013-02-16 02:53:00,29.0,26.0,-100.00,ESE,114,2.0,5.0,87,0.00,,,0.07,0.000000,,2013-02-16 07:53:00,
2013-02-16 03:01:00,29.0,26.0,-100.00,ESE,114,2.0,5.0,87,0.00,,,0.07,0.000000,,2013-02-16 08:01:00,
2013-02-16 03:11:00,28.0,24.0,-100.00,SE,131,6.0,11.0,86,0.00,,,0.07,0.000000,,2013-02-16 08:11:00,
2013-02-16 03:32:00,28.0,24.0,-100.00,SE,131,6.0,11.0,86,0.00,,,0.07,0.000000,,2013-02-16 08:32:00,
2013-02-16 03:42:00,28.0,24.0,-100.00,SE,131,6.0,11.0,86,0.00,,,0.07,0.000000,,2013-02-16 08:42:00,
2013-02-16 03:52:00,28.0,24.0,-100.00,SE,131,6.0,11.0,86,0.00,,,0.07,0.000000,,2013-02-16 08:52:00,
2013-02-16 04:02:00,28.0,24.0,-100.00,SE,131,6.0,11.0,86,0.00,,,0.07,0.000000,,2013-02-16 09:02:00,
2013-02-16 04:11:00,27.0,24.0,-100.00,ESE,119,4.0,10.0,87,0.00,,,0.07,0.000000,,2013-02-16 09:11:00,
2013-02-16 04:42:00,27.0,24.0,-100.00,ESE,119,4.0,10.0,87,0.00,,,0.07,0.000000,,2013-02-16 09:42:00,
2013-02-16 04:52:00,27.0,24.0,-100.00,ESE,119,4.0,10.0,87,0.00,,,0.07,0.000000,,2013-02-16 09:52:00,
2013-02-16 05:01:00,27.0,24.0,-100.00,ESE,119,4.0,10.0,87,0.00,,,0.07,0.000000,,2013-02-16 10:01:00,
2013-02-16 05:11:00,26.0,23.0,-100.00,ESE,120,4.0,8.0,87,0.00,,,0.07,0.000000,,2013-02-16 10:11:00,
2013-02-16 05:42:00,26.0,23.0,-100.00,ESE,120,4.0,8.0,87,0.00,,,0.07,0.000000,,2013-02-16 10:42:00,
2013-02-16 05:52:00,26.0,23.0,-100.00,ESE,120,4.0,8.0,87,0.00,,,0.07,0.000000,,2013-02-16 10:52:00,
2013-02-16 06:02:00,26.0,23.0,-100.00,ESE,120,4.0,8.0,87,0.00,,,0.07,0.000000,,2013-02-16 11:02:00,
2013-02-16 06:11:00,25.0,21.0,-100.00,ESE,111,4.0,10.0,86,0.00,,,0.07,0.000000,,2013-02-16 11:11:00,
2013-02-16 06:32:00,25.0,21.0,-100.00,ESE,111,4.0,10.0,86,0.00,,,0.07,0.000000,,2013-02-16 11:32:00,
2013-02-16 06:42:00,25.0,21.0,-100.00,ESE,111,4.0,10.0,86,0.00,,,0.07,0.000000,,2013-02-16 11:42:00,
2013-02-16 06:52:00,25.0,21.0,-100.00,ESE,111,4.0,10.0,86,0.00,,,0.07,0.000000,,2013-02-16 11:52:00,
2013-02-16 07:02:00,25.0,21.0,-100.00,ESE,111,4.0,10.0,86,0.00,,,0.07,0.000000,,2013-02-16 12:02:00,
2013-02-16 07:11:00,25.0,20.0,-100.00,ESE,114,3.0,9.0,81,0.00,,,0.07,0.000000,,2013-02-16 12:11:00,
2013-02-16 07:32:00,25.0,20.0,-100.00,ESE,114,3.0,9.0,81,0.00,,,0.07,0.000000,,2013-02-16 12:32:00,
2013-02-16 07:42:00,25.0,20.0,-100.00,ESE,114,3.0,9.0,81,0.00,,,0.07,0.000000,,2013-02-16 12:42:00,
2013-02-16 07:52:00,25.0,20.0,-100.00,ESE,114,3.0,9.0,81,0.00,,,0.07,0.000000,,2013-02-16 12:52:00,
2013-02-16 08:02:00,25.0,20.0,-100.00,ESE,114,3.0,9.0,81,0.00,,,0.07,0.000000,,2013-02-16 13:02:00,
2013-02-16 09:11:00,24.0,19.0,-100.00,SE,134,5.0,9.0,82,-99.99,,,0.07,40.000000,,2013-02-16 14:11:00,
2013-02-16 09:42:00,24.0,19.0,-100.00,SE,134,5.0,9.0,82,-99.99,,,0.07,40.000000,,2013-02-16 14:42:00,
2013-02-16 09:52:00,24.0,19.0,-100.00,SE,134,5.0,9.0,82,-99.99,,,0.07,40.000000,,2013-02-16 14:52:00,
2013-02-16 10:02:00,24.0,19.0,-100.00,SE,134,5.0,9.0,82,-99.99,,,0.07,40.000000,,2013-02-16 15:02:00,
2013-02-16 10:11:00,26.0,20.0,-100.00,ESE,121,4.0,11.0,79,0.00,,,0.07,171.000000,,2013-02-16 15:11:00,
2013-02-16 10:42:00,26.0,20.0,-100.00,ESE,121,4.0,11.0,79,0.00,,,0.07,171.000000,,2013-02-16 15:42:00,
2013-02-16 10:52:00,26.0,20.0,-100.00,ESE,121,4.0,11.0,79,0.00,,,0.07,171.000000,,2013-02-16 15:52:00,
2013-02-16 11:02:00,26.0,20.0,-100.00,ESE,121,4.0,11.0,79,0.00,,,0.07,171.000000,,2013-02-16 16:02:00,
2013-02-16 11:11:00,26.0,18.0,-100.00,SE,126,5.0,11.0,70,0.00,,,0.07,289.000000,,2013-02-16 16:11:00,
2013-02-16 11:32:00,26.0,18.0,-100.00,SE,126,5.0,11.0,70,0.00,,,0.07,289.000000,,2013-02-16 16:32:00,
2013-02-16 11:42:00,26.0,18.0,-100.00,SE,126,5.0,11.0,70,0.00,,,0.07,289.000000,,2013-02-16 16:42:00,
2013-02-16 11:52:00,26.0,18.0,-100.00,SE,126,5.0,11.0,70,0.00,,,0.07,289.000000,,2013-02-16 16:52:00,
2013-02-16 12:01:00,26.0,18.0,-100.00,SE,126,5.0,11.0,70,0.00,,,0.07,289.000000,,2013-02-16 17:01:00,
2013-02-16 12:11:00,27.0,16.0,-100.00,SE,128,6.0,10.0,62,0.01,,,0.08,452.000000,,2013-02-16 17:11:00,
2013-02-16 12:42:00,27.0,16.0,-100.00,SE,128,6.0,10.0,62,0.01,,,0.08,452.000000,,2013-02-16 17:42:00,
2013-02-16 12:52:00,27.0,16.0,-100.00,SE,128,6.0,10.0,62,0.01,,,0.08,452.000000,,2013-02-16 17:52:00,
2013-02-16 13:02:00,27.0,16.0,-100.00,SE,128,6.0,10.0,62,0.01,,,0.08,452.000000,,2013-02-16 18:02:00,
2013-02-16 13:11:00,26.0,15.0,-100.00,ESE,123,6.0,12.0,63,0.00,,,0.08,264.000000,,2013-02-16 18:11:00,
2013-02-16 13:33:00,26.0,15.0,-100.00,ESE,123,6.0,12.0,63,0.00,,,0.08,264.000000,,2013-02-16 18:33:00,
2013-02-16 13:42:00,26.0,15.0,-100.00,ESE,123,6.0,12.0,63,0.00,,,0.08,264.000000,,2013-02-16 18:42:00,
2013-02-16 13:52:00,26.0,15.0,-100.00,ESE,123,6.0,12.0,63,0.00,,,0.08,264.000000,,2013-02-16 18:52:00,
2013-02-16 14:02:00,26.0,15.0,-100.00,ESE,123,6.0,12.0,63,0.00,,,0.08,264.000000,,2013-02-16 19:02:00,
2013-02-16 14:11:00,28.0,12.0,-100.00,ENE,73,6.0,12.0,50,0.00,,,0.04,487.000000,,2013-02-16 19:11:00,
2013-02-16 14:42:00,28.0,12.0,-100.00,ENE,73,6.0,12.0,50,0.00,,,0.04,487.000000,,2013-02-16 19:42:00,
2013-02-16 14:52:00,28.0,12.0,-100.00,ENE,73,6.0,12.0,50,0.00,,,0.04,487.000000,,2013-02-16 19:52:00,
2013-02-16 15:01:00,28.0,12.0,-100.00,ENE,73,6.0,12.0,50,0.00,,,0.04,487.000000,,2013-02-16 20:01:00,
2013-02-16 15:11:00,28.0,14.0,-100.00,East,96,5.0,14.0,55,0.00,,,0.04,266.000000,,2013-02-16 20:11:00,
2013-02-16 15:42:00,28.0,14.0,-100.00,East,96,5.0,14.0,55,0.00,,,0.04,266.000000,,2013-02-16 20:42:00,
2013-02-16 15:52:00,28.0,14.0,-100.00,East,96,5.0,14.0,55,0.00,,,0.04,266.000000,,2013-02-16 20:52:00,
2013-02-16 16:02:00,28.0,14.0,-100.00,East,96,5.0,14.0,55,0.00,,,0.04,266.000000,,2013-02-16 21:02:00,
2013-02-16 16:11:00,26.0,12.0,-100.00,East,80,7.0,14.0,54,0.00,,,0.03,171.000000,,2013-02-16 21:11:00,
2013-02-16 16:42:00,26.0,12.0,-100.00,East,80,7.0,14.0,54,0.00,,,0.03,171.000000,,2013-02-16 21:42:00,
2013-02-16 16:52:00,26.0,12.0,-100.00,East,80,7.0,14.0,54,0.00,,,0.03,171.000000,,2013-02-16 21:52:00,
2013-02-16 17:01:00,26.0,12.0,-100.00,East,80,7.0,14.0,54,0.00,,,0.03,171.000000,,2013-02-16 22:01:00,
2013-02-16 17:11:00,24.0,19.0,-100.00,East,96,4.0,12.0,82,0.00,,,0.02,90.000000,,2013-02-16 22:11:00,
2013-02-16 17:32:00,24.0,19.0,-100.00,East,96,4.0,12.0,82,0.00,,,0.02,90.000000,,2013-02-16 22:32:00,
2013-02-16 17:42:00,24.0,19.0,-100.00,East,96,4.0,12.0,82,0.00,,,0.02,90.000000,,2013-02-16 22:42:00,
2013-02-16 17:52:00,24.0,19.0,-100.00,East,96,4.0,12.0,82,0.00,,,0.02,90.000000,,2013-02-16 22:52:00,
2013-02-16 18:02:00,24.0,19.0,-100.00,East,96,4.0,12.0,82,0.00,,,0.02,90.000000,,2013-02-16 23:02:00,
2013-02-16 18:11:00,22.0,16.0,-100.00,East,87,5.0,11.0,79,0.00,,,0.01,26.000000,,2013-02-16 23:11:00,
2013-02-16 18:32:00,22.0,16.0,-100.00,East,87,5.0,11.0,79,0.00,,,0.01,26.000000,,2013-02-16 23:32:00,
2013-02-16 18:42:00,22.0,16.0,-100.00,East,87,5.0,11.0,79,0.00,,,0.01,26.000000,,2013-02-16 23:42:00,
2013-02-16 18:52:00,22.0,16.0,-100.00,East,87,5.0,11.0,79,0.00,,,0.01,26.000000,,2013-02-16 23:52:00,
2013-02-16 19:02:00,22.0,16.0,-100.00,East,87,5.0,11.0,79,0.00,,,0.01,26.000000,,2013-02-17 00:02:00,
2013-02-16 19:11:00,20.0,15.0,-100.00,East,92,5.0,18.0,81,0.00,,,0.01,0.000000,,2013-02-17 00:11:00,
2013-02-16 19:32:00,20.0,15.0,-100.00,East,92,5.0,18.0,81,0.00,,,0.01,0.000000,,2013-02-17 00:32:00,
2013-02-16 19:42:00,20.0,15.0,-100.00,East,92,5.0,18.0,81,0.00,,,0.01,0.000000,,2013-02-17 00:42:00,
2013-02-16 19:52:00,20.0,15.0,-100.00,East,92,5.0,18.0,81,0.00,,,0.01,0.000000,,2013-02-17 00:52:00,
2013-02-16 20:01:00,20.0,15.0,-100.00,East,92,5.0,18.0,81,0.00,,,0.01,0.000000,,2013-02-17 01:01:00,
2013-02-16 21:11:00,20.0,13.0,-100.00,East,80,6.0,12.0,73,-99.99,,,0.01,0.000000,,2013-02-17 02:11:00,
2013-02-16 21:42:00,20.0,13.0,-100.00,East,80,6.0,12.0,73,-99.99,,,0.01,0.000000,,2013-02-17 02:42:00,
2013-02-16 21:52:00,20.0,13.0,-100.00,East,80,6.0,12.0,73,-99.99,,,0.01,0.000000,,2013-02-17 02:52:00,
2013-02-16 22:02:00,20.0,13.0,-100.00,East,80,6.0,12.0,73,-99.99,,,0.01,0.000000,,2013-02-17 03:02:00,
2013-02-16 22:11:00,20.0,12.0,-100.00,East,84,5.0,10.0,70,0.00,,,0.01,0.000000,,2013-02-17 03:11:00,
2013-02-16 22:32:00,20.0,12.0,-100.00,East,84,5.0,10.0,70,0.00,,,0.01,0.000000,,2013-02-17 03:32:00,
2013-02-16 22:42:00,20.0,12.0,-100.00,East,84,5.0,10.0,70,0.00,,,0.01,0.000000,,2013-02-17 03:42:00,
2013-02-16 22:52:00,20.0,12.0,-100.00,East,84,5.0,10.0,70,0.00,,,0.01,0.000000,,2013-02-17 03:52:00,
2013-02-16 23:01:00,20.0,12.0,-100.00,East,84,5.0,10.0,70,0.00,,,0.01,0.000000,,2013-02-17 04:01:00,
2013-02-16 23:11:00,20.0,10.0,-100.00,East,93,4.0,14.0,65,0.00,,,0.01,0.000000,,2013-02-17 04:11:00,
2013-02-16 23:42:00,20.0,10.0,-100.00,East,93,4.0,14.0,65,0.00,,,0.01,0.000000,,2013-02-17 04:42:00,
2013-02-16 23:52:00,20.0,10.0,-100.00,East,93,4.0,14.0,65,0.00,,,0.01,0.000000,,2013-02-17 04:52:00,